Regional Weather Roundup
Issued by NWS Albany, NY

Home | Current Version | Previous Version | Text Only | Print | Product List | Glossary On
Versions: 1 2 3 4 5 6 7 8 9 10 11 12 13 14 15 16 17 18 19 20 21 22 23 24 25 26 27
000
ASUS41 KALY 260810
RWRALY

NEW YORK STATE HOURLY WEATHER ROUNDUP
NATIONAL WEATHER SERVICE ALBANY NY
400 AM EDT SUN MAR 26 2017

NOTE: "FAIR" INDICATES FEW OR NO CLOUDS BELOW 12,000 FEET WITH NO
SIGNIFICANT WEATHER AND/OR NO OBSTRUCTIONS TO VISIBILITY.

NYZ032-033-038>043-046>054-057>066-NYZ062>081-082-084-260900-
EAST


CITY           SKY/WX    TMP DP  RH WIND       PRES   REMARKS
ALBANY         CLOUDY    28  14  55 N7        30.46S WCI  21
GLENS FALLS    CLOUDY    25  19  78 N6        30.46S WCI  18
POUGHKEEPSIE   CLOUDY    34  30  85 N3        30.43R
NEWBURGH       CLOUDY    36  34  93 NE6       30.43S WCI  31
MONTGOMERY     CLOUDY    36  27  69 NE10      30.41S WCI  28
WHITE PLAINS   CLOUDY    38  32  79 E9        30.40S WCI  31
ISLIP          CLOUDY    40  36  86 NE7       30.42R
NEW YORK CITY  LGT RAIN  41  35  79 NE13      30.41F
CENTRAL PARK   LGT RAIN  38  36  92 E12       30.43F FOG     WCI  30
$$

NYZ005>009-017-018-044>046-055-056-260900-
CENTRAL


CITY           SKY/WX    TMP DP  RH WIND       PRES   REMARKS
FULTON         CLOUDY    37  32  82 MISG      30.34F
SYRACUSE       CLOUDY    35  33  92 E9        30.35S WCI  28
ROME           CLOUDY    33  29  85 SE9       30.40F WCI  25
ELMIRA         CLOUDY    38  34  85 NE6       30.31F WCI  33
BINGHAMTON     CLOUDY    32  32 100 E8        30.29S FOG     WCI  25
MONTICELLO     CLOUDY    30  28  93 E10       30.37F WCI  21
$$

NYZ026>034-041>043-087-260900-
NORTH


CITY           SKY/WX    TMP DP  RH WIND       PRES   REMARKS
WATERTOWN      CLOUDY    28  26  92 E8        30.39S WCI  20
FORT DRUM      NOT AVBL
MASSENA        CLOUDY    19  17  92 NE7       30.48S WCI  10
SARANAC LAKE   CLOUDY     4   1  88 SW8       30.36F WCI  -9
PLATTSBURGH    CLOUDY    17  13  84 CALM      30.50F
$$

NYZ001>004-010>016-019>021-085-260900-
WEST


CITY           SKY/WX    TMP DP  RH WIND       PRES   REMARKS
NIAGARA FALLS  CLOUDY    37  32  82 E13       30.24F WCI  29
BUFFALO        CLOUDY    36  33  89 NE12      30.23F WCI  28
DUNKIRK        CLOUDY    40  37  89 NE12      30.17F WCI  33
JAMESTOWN      PTCLDY    43  37  81 SE6       30.16F
WELLSVILLE     CLOUDY    35  33  92 E8        30.24F FOG     WCI  29
ROCHESTER      LGT RAIN  36  33  89 E7        30.31F WCI  30
PENN YAN       LGT RAIN  35  32  88 CALM      30.30F FOG
$$

             KEY
       WCI = WIND CHILL INDEX
       VSB = VISIBILITY
       HX  = HEAT INDEX
$$




USA.gov is the U.S. government's official web portal to all federal, state and local government web resources and services.